METEOR 2-8 DEB

Satellite information

Favourite Embed

Satellite Type and Status

DEBRISIN ORBIT

Key statistics

Satellite METEOR 2-8 DEB at a glance.

Uptime

15809

Days in orbit

Revolutions

≈ 14.3

Per day

Orbit

LEO

Low Earth Orbit

Inclination

82.5

Latest

Satellite identification and parameters

Extended collection of information and parameters for METEOR 2-8 DEB.

Object identification

Identified? True

Debris? True

Object name: METEOR 2-8 DEB

International designator: 1982-025BC

Object number (NORAD): 36865

Object ID (CCSDS): 36865

Country: COMMONWEALTH OF INDEPENDENT STATES (CIS)

Current information (Y/N): Y

RCS size: SMALL

Orbital parameters

Period: 100.973 minutes

Inclination: 82.538 deg

SMA: 7182.845 km

Apoapsis: 814.684 km

Periapsis: 794.735 km

RAAN: 128.5941 deg

Eccentricy: 0.0013887

Argument of periapsis: 273.7266 deg

Mean anomaly: 86.233 deg

Mean motion: 14.26126514 rev/day

Mean motion (dot): 0.00002953 rev/day2

B* drag term: 0.0012272 1/REarth

Two-line elements (TLE)

Creation date: June 29, 2025, 10:56 p.m.

Reference frame: TEME

Reference center: EARTH

Epoch: June 29, 2025, 2:16 p.m. UTC

TLE line 0: 0 METEOR 2-8 DEB

TLE line 1: 1 36865U 82025BC 25180.59485689 .00002953 00000-0 12272-2 0 9990

TLE line 2: 2 36865 82.5380 128.5941 0013887 273.7266 86.2330 14.26126514 88994

Live tracking on map

Real-time ground track for satellite METEOR 2-8 DEB.

In-orbit conjunctions

A list of the most updated potential collisions computed for object METEOR 2-8 DEB.

Target Orbit TCA Probability of collision Miss distance Type
FENGYUN 1C DEB SSO 2024-11-10 21:13:12 0.0006865257 166.0 (m) DEBRIS

Associated space launch

Second generation soviet meteorological satellite

METEOR 2-8 DEB was lifted into orbit during the mission ‘Tsiklon-3 | Meteor-2 8’, on board a Tsiklon-3 space rocket.

The launch took place on March 25, 1982, 9:50 a.m. from 32/1.

For more information about the launch, click the button.

Launch to space Tsiklon-3 | Meteor-2 8
Tsiklon-3 | Meteor-2 8

Agency: N/A

Status: Launch Successful

Launch date: March 25, 1982, 9:50 a.m. UTC

Rocket: Tsiklon-3

Launch pad: 32/1

Location: Plesetsk Cosmodrome, Russian Federation

...

Latest news about this satellite

There are no fresh news available about this satellite. Check back as we update our databases every day.


Newsletter sign-up

Weekly statistics, charts and insights to help you stay on top of the space industry.